Location: Cucq
(50.4773°N, 1.6202°E)
Time: 21:52:03
(UTC+00:00)

Cosmos 1626 - Pass Details

Date: 07 August 2020
Orbit: 491 x 494 km, 82.5° (Epoch: 22 September)

Event Time Altitude Azimuth Distance (km) Brightness Sun altitude
Rises 02:31:49 0° 345° (NNW) 2,594 6.3 -15.3°
Reaches altitude 10° 02:33:59 10° 340° (NNW) 1,706 5.2 -15.1°
Maximum altitude 02:37:36 48° 265° (W) 655 2.4 -14.7°
Enters shadow 02:39:17 27° 205° (SSW) 987 3.0 -14.6°
